This is the latest recevied weather packets stored in our database for station/object W7TTE. If no packets are shown the sender has not sent any weather packets the latest 10 day(s).
| Time | Temp. | Humidity | Pressure | Rain* | Wind** | Luminosity | Snow |
|---|---|---|---|---|---|---|---|
| 1777991228 | 18.89° C | 50% | 1014.1 hPa | 0 mm | - | 128 W/m² | - |
| 1777990926 | 18.89° C | 50% | 1014.1 hPa | 0 mm | - | 127 W/m² | - |
| 1777990624 | 18.89° C | 51% | 1014.1 hPa | 0 mm | - | 94 W/m² | - |
| 1777990320 | 18.89° C | 52% | 1013.9 hPa | 0 mm | - | 61 W/m² | - |
| 1777990016 | 18.33° C | 51% | 1014.1 hPa | 0 mm | - | 59 W/m² | - |
| 1777988197 | 17.78° C | 59% | 1013.7 hPa | 0 mm | - | 47 W/m² | - |
| 1777987893 | 17.78° C | 59% | 1014 hPa | 0 mm | - | 30 W/m² | - |
| 1777987589 | 17.22° C | 60% | 1014 hPa | 0 mm | - | 27 W/m² | - |
| 1777987287 | 17.22° C | 60% | 1013.9 hPa | 0 mm | - | 25 W/m² | - |
| 1777986983 | 17.22° C | 60% | 1013.6 hPa | 0 mm | - | 19 W/m² | - |
| 1777984559 | 17.78° C | 61% | 1013.4 hPa | 0 mm | - | 2 W/m² | - |
| 1777984256 | 17.78° C | 62% | 1013.1 hPa | 0 mm | - | 1 W/m² | - |
| 1777983953 | 17.78° C | 61% | 1013.1 hPa | 0 mm | - | 0 W/m² | - |
| 1777982740 | 17.78° C | 61% | 1013.3 hPa | 0 mm | - | 0 W/m² | - |
| 1777982435 | 17.78° C | 61% | 1012.9 hPa | 0 mm | - | 0 W/m² | - |
| 1777982130 | 17.22° C | 61% | 1012.9 hPa | 0 mm | - | 0 W/m² | - |
| 1777981828 | 17.22° C | 61% | 1013 hPa | 0 mm | - | 0 W/m² | - |
| 1777981525 | 17.22° C | 60% | 1012.9 hPa | 0 mm | - | 0 W/m² | - |
| 1777981221 | 17.22° C | 60% | 1012.8 hPa | 0 mm | - | 0 W/m² | - |
| 1777980917 | 17.78° C | 60% | 1012.8 hPa | 0 mm | - | 0 W/m² | - |
| 1777980614 | 17.78° C | 60% | 1012.9 hPa | 0 mm | - | 0 W/m² | - |
| 1777980009 | 17.78° C | 59% | 1012.7 hPa | 0 mm | - | 0 W/m² | - |
| 1777979708 | 17.78° C | 59% | 1012.8 hPa | 0 mm | - | 0 W/m² | - |
| 1777979101 | 17.78° C | 58% | 1012.6 hPa | 0 mm | - | 0 W/m² | - |
| 1777978797 | 18.33° C | 58% | 1012.7 hPa | 0 mm | - | 0 W/m² | - |
* Rain latest hour (hover to see other rain measurements)
** Current wind speed in m/s (hover to see current wind gust speed)